QPF
0.04 0.04 0.05 0.06 0.06 0.05 0.05 0.06 0.06 0.05 0.03 0.02 0.02 0.02 0.02 0.02 0.02 0.02 0.02 0.03 0.03 0.03 0.03 0.03 0.03 0.03 0.03 0.03 0.02 0.02 0.02 0.02 0.01 0.01 0.01 0.00 0.00 0.00 0.00 0.00 0.00 0.00 0.00
0.04 0.06 0.08 0.07 0.06 0.05 0.05 0.04 0.04 0.04 0.03 0.01 0.01 0.01 0.01 0.01 0.01 0.01 0.01 0.02 0.03 0.03 0.02 0.02 0.02 0.01 0.01 0.01 0.01 0.01 0.00 0.00 0.00 0.00 0.00 0.00 0.00 0.00 0.00 0.00 0.00 0.00 0.00
0.04 0.06 0.08 0.09 0.08 0.07 0.06 0.05 0.03 0.03 0.03 0.02 0.01 0.01 0.01 0.00 0.00 0.00 0.00 0.01 0.01 0.01 0.01 0.01 0.01 0.00 0.00 0.00 0.00 0.00 0.00 0.00 0.00 0.00 0.00 0.00 0.00 0.00 0.00 0.00 0.00 0.00 0.00
0.03 0.05 0.07 0.08 0.08 0.08 0.06 0.06 0.04 0.02 0.02 0.02 0.02 0.00 0.00 0.00 0.00 0.00 0.00 0.00 0.00 0.00 0.00 0.00 0.00 0.00 0.00 0.00 0.00 0.00 0.00 0.00 0.00 0.00 0.00 0.00 0.00 0.00 0.00 0.00 0.00 0.00 0.00
0.03 0.05 0.06 0.06 0.06 0.05 0.03 0.02 0.02 0.02 0.02 0.02 0.01 0.01 0.00 0.00 0.00 0.00 0.00 0.00 0.00 0.00 0.00 0.00 0.00 0.00 0.00 0.00 0.00 0.00 0.00 0.00 0.00 0.00 0.00 0.00 0.00 0.00 0.00 0.00 0.00 0.00 0.00
0.04 0.06 0.06 0.05 0.05 0.05 0.03 0.02 0.02 0.02 0.01 0.01 0.01 0.01 0.01 0.00 0.00 0.00 0.00 0.00 0.00 0.00 0.00 0.00 0.00 0.00 0.00 0.00 0.00 0.00 0.00 0.00 0.00 0.00 0.00 0.00 0.00 0.00 0.00 0.00 0.00 0.00 0.00
0.04 0.05 0.06 0.05 0.04 0.04 0.04 0.02 0.02 0.02 0.01 0.01 0.01 0.01 0.00 0.00 0.00 0.00 0.00 0.00 0.00 0.00 0.00 0.00 0.00 0.00 0.00 0.00 0.00 0.00 0.00 0.00 0.00 0.00 0.00 0.00 0.00 0.00 0.00 0.00 0.00 0.00 0.00
0.04 0.04 0.05 0.04 0.03 0.03 0.02 0.02 0.01 0.01 0.01 0.01 0.01 0.00 0.00 0.00 0.00 0.00 0.00 0.00 0.00 0.00 0.00 0.00 0.00 0.00 0.00 0.00 0.00 0.00 0.00 0.00 0.00 0.00 0.00 0.00 0.00 0.00 0.00 0.00 0.00 0.00 0.00
0.03 0.03 0.03 0.03 0.02 0.02 0.02 0.01 0.01 0.01 0.01 0.01 0.01 0.01 0.00 0.00 0.00 0.00 0.00 0.00 0.00 0.00 0.00 0.00 0.00 0.00 0.00 0.00 0.00 0.00 0.00 0.00 0.00 0.00 0.00 0.00 0.00 0.00 0.00 0.00 0.00 0.00 0.00
0.03 0.03 0.02 0.02 0.01 0.01 0.01 0.01 0.01 0.01 0.01 0.01 0.01 0.01 0.01 0.00 0.00 0.00 0.00 0.00 0.00 0.00 0.00 0.00 0.00 0.00 0.00 0.00 0.00 0.00 0.00 0.00 0.00 0.00 0.00 0.00 0.00 0.00 0.00 0.00 0.00 0.00 0.00
0.02 0.03 0.02 0.01 0.01 0.01 0.01 0.01 0.00 0.00 0.01 0.01 0.00 0.00 0.00 0.00 0.00 0.00 0.00 0.00 0.00 0.00 0.00 0.00 0.00 0.00 0.00 0.00 0.00 0.00 0.00 0.00 0.00 0.00 0.00 0.00 0.00 0.00 0.00 0.00 0.00 0.00 0.00
0.02 0.03 0.02 0.01 0.01 0.01 0.01 0.01 0.01 0.01 0.01 0.00 0.00 0.00 0.00 0.00 0.00 0.00 0.00 0.00 0.00 0.00 0.00 0.00 0.00 0.00 0.00 0.00 0.00 0.00 0.00 0.00 0.00 0.00 0.00 0.00 0.00 0.00 0.00 0.00 0.00 0.00 0.00
0.02 0.02 0.01 0.01 0.01 0.00 0.00 0.01 0.01 0.01 0.00 0.00 0.00 0.00 0.00 0.00 0.00 0.00 0.00 0.00 0.00 0.00 0.00 0.00 0.00 0.00 0.00 0.00 0.00 0.00 0.00 0.00 0.00 0.00 0.00 0.00 0.00 0.00 0.00 0.00 0.00 0.00 0.00
0.02 0.01 0.01 0.00 0.00 0.00 0.00 0.00 0.01 0.01 0.01 0.00 0.00 0.00 0.00 0.00 0.00 0.00 0.00 0.00 0.00 0.00 0.00 0.00 0.00 0.00 0.00 0.00 0.00 0.00 0.00 0.00 0.00 0.00 0.00 0.00 0.00 0.00 0.00 0.00 0.00 0.00 0.00
0.01 0.01 0.00 0.00 0.00 0.00 0.00 0.00 0.00 0.01 0.00 0.00 0.00 0.00 0.00 0.00 0.00 0.00 0.00 0.00 0.00 0.00 0.00 0.00 0.00 0.00 0.00 0.00 0.00 0.00 0.00 0.00 0.00 0.00 0.00 0.00 0.00 0.00 0.00 0.00 0.00 0.00 0.00
0.01 0.00 0.00 0.00 0.00 0.00 0.00 0.00 0.00 0.00 0.00 0.00 0.00 0.00 0.00 0.00 0.00 0.00 0.00 0.00 0.00 0.00 0.00 0.00 0.00 0.00 0.00 0.00 0.00 0.00 0.00 0.00 0.00 0.00 0.00 0.00 0.00 0.00 0.00 0.00 0.00 0.00 0.00
0.00 0.00 0.00 0.00 0.00 0.00 0.00 0.00 0.00 0.00 0.00 0.00 0.00 0.00 0.00 0.00 0.00 0.00 0.00 0.00 0.00 0.00 0.00 0.00 0.00 0.00 0.00 0.00 0.00 0.00 0.00 0.00 0.00 0.00 0.00 0.00 0.00 0.00 0.00 0.00 0.00 0.00 0.00
0.00 0.00 0.00 0.00 0.00 0.00 0.00 0.00 0.00 0.00 0.00 0.00 0.00 0.00 0.00 0.00 0.00 0.00 0.00 0.00 0.00 0.00 0.00 0.00 0.00 0.00 0.00 0.00 0.00 0.00 0.00 0.00 0.00 0.00 0.00 0.00 0.00 0.00 0.00 0.00 0.00 0.00 0.00
0.00 0.00 0.00 0.00 0.00 0.00 0.00 0.00 0.00 0.00 0.00 0.00 0.00 0.00 0.00 0.00 0.00 0.00 0.00 0.00 0.00 0.00 0.00 0.00 0.00 0.00 0.00 0.00 0.00 0.00 0.00 0.00 0.00 0.00 0.00 0.00 0.00 0.00 0.00 0.00 0.00 0.00 0.00
0.00 0.00 0.00 0.00 0.00 0.00 0.00 0.00 0.00 0.00 0.00 0.00 0.00 0.00 0.00 0.00 0.00 0.00 0.00 0.00 0.00 0.00 0.00 0.00 0.00 0.00 0.00 0.00 0.00 0.00 0.00 0.00 0.00 0.00 0.00 0.00 0.00 0.00 0.00 0.00 0.00 0.00 0.00
0.00 0.00 0.00 0.00 0.00 0.00 0.00 0.00 0.00 0.00 0.00 0.00 0.00 0.00 0.00 0.00 0.00 0.00 0.00 0.00 0.00 0.00 0.00 0.00 0.00 0.00 0.00 0.00 0.00 0.00 0.00 0.00 0.00 0.00 0.00 0.00 0.00 0.00 0.00 0.00 0.00 0.00 0.00
0.00 0.00 0.00 0.00 0.00 0.00 0.00 0.00 0.00 0.00 0.00 0.00 0.00 0.00 0.00 0.00 0.00 0.00 0.00 0.00 0.00 0.00 0.00 0.00 0.00 0.00 0.00 0.00 0.00 0.00 0.00 0.00 0.00 0.00 0.00 0.00 0.00 0.00 0.00 0.00 0.00 0.00 0.00
0.00 0.00 0.00 0.00 0.00 0.00 0.00 0.00 0.00 0.00 0.00 0.00 0.00 0.00 0.00 0.00 0.00 0.00 0.00 0.00 0.00 0.00 0.00 0.00 0.00 0.00 0.00 0.00 0.00 0.00 0.00 0.00 0.00 0.00 0.00 0.00 0.00 0.00 0.00 0.00 0.00 0.00 0.00
0.00 0.00 0.00 0.00 0.00 0.00 0.00 0.00 0.00 0.00 0.00 0.00 0.00 0.00 0.00 0.00 0.00 0.00 0.00 0.00 0.00 0.00 0.00 0.00 0.00 0.00 0.00 0.00 0.00 0.00 0.00 0.00 0.00 0.00 0.00 0.00 0.00 0.00 0.00 0.00 0.00 0.00 0.00
0.00 0.00 0.00 0.00 0.00 0.00 0.00 0.00 0.00 0.00 0.00 0.00 0.00 0.00 0.00 0.00 0.00 0.00 0.00 0.00 0.00 0.00 0.00 0.00 0.00 0.00 0.00 0.00 0.00 0.00 0.00 0.00 0.00 0.00 0.00 0.00 0.00 0.00 0.00 0.00 0.00 0.00 0.00
0.00 0.00 0.00 0.00 0.00 0.00 0.00 0.00 0.00 0.00 0.00 0.00 0.00 0.00 0.00 0.00 0.00 0.00 0.00 0.00 0.00 0.00 0.00 0.00 0.00 0.00 0.00 0.00 0.00 0.00 0.00 0.00 0.00 0.00 0.00 0.00 0.00 0.00 0.00 0.00 0.00 0.00 0.00
MSLP
1014.20 1014.13 1014.15 1014.22 1014.34 1014.46 1014.60 1014.76 1014.93 1015.13 1015.37 1015.65 1015.97 1016.31 1016.66 1017.02 1017.35 1017.67 1017.96 1018.23 1018.49 1018.75 1019.01 1019.30 1019.61 1019.97 1020.39 1020.87 1021.41 1022.01 1022.65 1023.32 1023.97 1024.59 1025.13 1025.56 1025.86 1026.04 1026.10 1026.08 1025.99 1025.89 1025.80
1015.04 1014.98 1015.02 1015.12 1015.26 1015.44 1015.62 1015.81 1016.01 1016.22 1016.44 1016.67 1016.93 1017.19 1017.47 1017.75 1018.02 1018.30 1018.57 1018.83 1019.09 1019.35 1019.61 1019.88 1020.16 1020.47 1020.82 1021.22 1021.69 1022.22 1022.80 1023.42 1024.06 1024.66 1025.20 1025.64 1025.96 1026.14 1026.20 1026.16 1026.04 1025.90 1025.75
1015.93 1015.91 1015.97 1016.09 1016.26 1016.45 1016.66 1016.86 1017.06 1017.26 1017.45 1017.63 1017.82 1018.01 1018.21 1018.42 1018.65 1018.90 1019.16 1019.44 1019.73 1020.02 1020.31 1020.59 1020.88 1021.17 1021.48 1021.83 1022.24 1022.70 1023.21 1023.78 1024.36 1024.92 1025.44 1025.86 1026.17 1026.35 1026.40 1026.33 1026.18 1025.99 1025.79
1016.86 1016.87 1016.95 1017.09 1017.26 1017.46 1017.66 1017.86 1018.05 1018.23 1018.38 1018.52 1018.64 1018.77 1018.91 1019.07 1019.26 1019.50 1019.77 1020.07 1020.40 1020.74 1021.08 1021.41 1021.72 1022.02 1022.31 1022.63 1022.97 1023.37 1023.81 1024.30 1024.81 1025.31 1025.78 1026.17 1026.45 1026.61 1026.64 1026.55 1026.38 1026.15 1025.90
1017.78 1017.84 1017.94 1018.08 1018.24 1018.42 1018.61 1018.80 1018.96 1019.11 1019.23 1019.33 1019.42 1019.51 1019.61 1019.73 1019.91 1020.13 1020.42 1020.75 1021.12 1021.51 1021.90 1022.27 1022.61 1022.92 1023.21 1023.50 1023.79 1024.12 1024.48 1024.89 1025.31 1025.74 1026.14 1026.47 1026.72 1026.85 1026.87 1026.77 1026.59 1026.34 1026.07
1018.68 1018.77 1018.89 1019.02 1019.17 1019.33 1019.49 1019.65 1019.80 1019.93 1020.04 1020.13 1020.20 1020.26 1020.35 1020.46 1020.62 1020.85 1021.14 1021.49 1021.89 1022.31 1022.73 1023.13 1023.49 1023.81 1024.09 1024.34 1024.59 1024.84 1025.12 1025.44 1025.77 1026.11 1026.43 1026.71 1026.90 1027.01 1027.02 1026.93 1026.75 1026.51 1026.24
1019.52 1019.65 1019.77 1019.89 1020.02 1020.16 1020.30 1020.45 1020.59 1020.72 1020.83 1020.93 1021.01 1021.08 1021.17 1021.28 1021.44 1021.66 1021.95 1022.30 1022.70 1023.12 1023.54 1023.94 1024.30 1024.61 1024.86 1025.08 1025.27 1025.45 1025.66 1025.88 1026.12 1026.37 1026.61 1026.82 1026.97 1027.06 1027.06 1026.97 1026.82 1026.61 1026.36
1020.29 1020.44 1020.57 1020.68 1020.79 1020.91 1021.04 1021.19 1021.34 1021.49 1021.63 1021.76 1021.87 1021.97 1022.07 1022.19 1022.35 1022.56 1022.83 1023.15 1023.52 1023.91 1024.31 1024.68 1025.00 1025.28 1025.50 1025.66 1025.80 1025.92 1026.05 1026.18 1026.33 1026.50 1026.66 1026.81 1026.92 1026.98 1026.97 1026.91 1026.78 1026.60 1026.39
1020.95 1021.12 1021.25 1021.36 1021.47 1021.58 1021.72 1021.88 1022.05 1022.24 1022.43 1022.60 1022.75 1022.89 1023.02 1023.16 1023.31 1023.50 1023.73 1024.01 1024.32 1024.66 1025.00 1025.31 1025.59 1025.82 1025.99 1026.11 1026.19 1026.26 1026.31 1026.38 1026.46 1026.55 1026.64 1026.72 1026.79 1026.81 1026.80 1026.74 1026.64 1026.50 1026.32
1021.52 1021.70 1021.83 1021.94 1022.05 1022.18 1022.33 1022.52 1022.73 1022.96 1023.20 1023.42 1023.62 1023.80 1023.95 1024.09 1024.24 1024.40 1024.59 1024.81 1025.06 1025.33 1025.59 1025.84 1026.06 1026.23 1026.36 1026.44 1026.48 1026.50 1026.51 1026.52 1026.54 1026.57 1026.60 1026.63 1026.64 1026.63 1026.60 1026.53 1026.44 1026.32 1026.17
1021.99 1022.17 1022.31 1022.43 1022.56 1022.70 1022.88 1023.10 1023.35 1023.63 1023.91 1024.18 1024.42 1024.62 1024.79 1024.94 1025.07 1025.20 1025.34 1025.50 1025.68 1025.88 1026.08 1026.27 1026.43 1026.56 1026.65 1026.69 1026.71 1026.70 1026.69 1026.66 1026.64 1026.62 1026.61 1026.58 1026.54 1026.49 1026.42 1026.33 1026.22 1026.10 1025.96
1022.37 1022.55 1022.70 1022.84 1022.99 1023.16 1023.37 1023.62 1023.91 1024.22 1024.53 1024.83 1025.09 1025.31 1025.49 1025.63 1025.74 1025.84 1025.94 1026.05 1026.18 1026.31 1026.45 1026.59 1026.71 1026.81 1026.87 1026.91 1026.92 1026.91 1026.88 1026.84 1026.80 1026.75 1026.69 1026.62 1026.54 1026.44 1026.31 1026.18 1026.04 1025.89 1025.73
1022.70 1022.88 1023.04 1023.20 1023.37 1023.58 1023.82 1024.09 1024.41 1024.74 1025.06 1025.37 1025.63 1025.85 1026.02 1026.15 1026.24 1026.31 1026.38 1026.45 1026.53 1026.63 1026.73 1026.83 1026.93 1027.01 1027.06 1027.10 1027.12 1027.12 1027.09 1027.06 1027.01 1026.95 1026.86 1026.76 1026.63 1026.47 1026.30 1026.11 1025.91 1025.72 1025.53
1022.98 1023.17 1023.35 1023.53 1023.73 1023.96 1024.23 1024.53 1024.85 1025.18 1025.50 1025.79 1026.04 1026.24 1026.39 1026.50 1026.57 1026.62 1026.66 1026.71 1026.77 1026.84 1026.92 1027.01 1027.09 1027.17 1027.23 1027.28 1027.31 1027.32 1027.32 1027.30 1027.26 1027.19 1027.09 1026.95 1026.78 1026.58 1026.36 1026.11 1025.86 1025.61 1025.37
1023.24 1023.44 1023.64 1023.85 1024.08 1024.34 1024.62 1024.93 1025.25 1025.56 1025.86 1026.13 1026.35 1026.52 1026.64 1026.72 1026.78 1026.81 1026.84 1026.88 1026.93 1026.99 1027.06 1027.14 1027.22 1027.30 1027.37 1027.43 1027.48 1027.51 1027.53 1027.52 1027.49 1027.42 1027.31 1027.16 1026.97 1026.73 1026.46 1026.17 1025.86 1025.56 1025.27
1023.48 1023.70 1023.92 1024.17 1024.42 1024.71 1025.00 1025.31 1025.62 1025.91 1026.18 1026.41 1026.59 1026.73 1026.82 1026.88 1026.92 1026.94 1026.97 1027.00 1027.05 1027.11 1027.18 1027.25 1027.33 1027.41 1027.49 1027.56 1027.61 1027.66 1027.69 1027.69 1027.67 1027.61 1027.50 1027.34 1027.14 1026.88 1026.58 1026.25 1025.91 1025.56 1025.23
1023.69 1023.93 1024.19 1024.47 1024.76 1025.06 1025.37 1025.68 1025.97 1026.23 1026.47 1026.66 1026.80 1026.91 1026.98 1027.02 1027.05 1027.07 1027.09 1027.13 1027.17 1027.23 1027.30 1027.38 1027.45 1027.53 1027.60 1027.67 1027.73 1027.78 1027.81 1027.82 1027.80 1027.74 1027.64 1027.48 1027.26 1027.00 1026.68 1026.33 1025.97 1025.60 1025.24
1023.86 1024.13 1024.43 1024.73 1025.06 1025.38 1025.70 1026.00 1026.28 1026.53 1026.73 1026.89 1027.01 1027.09 1027.14 1027.17 1027.20 1027.22 1027.24 1027.28 1027.33 1027.39 1027.45 1027.52 1027.59 1027.66 1027.72 1027.78 1027.83 1027.87 1027.90 1027.91 1027.89 1027.83 1027.72 1027.56 1027.35 1027.08 1026.76 1026.41 1026.03 1025.65 1025.28
1023.97 1024.28 1024.61 1024.95 1025.30 1025.64 1025.96 1026.27 1026.54 1026.77 1026.95 1027.10 1027.20 1027.27 1027.31 1027.34 1027.37 1027.39 1027.42 1027.46 1027.51 1027.56 1027.62 1027.68 1027.74 1027.80 1027.85 1027.90 1027.94 1027.97 1027.99 1027.99 1027.97 1027.90 1027.79 1027.63 1027.41 1027.14 1026.82 1026.46 1026.09 1025.70 1025.33
1024.02 1024.36 1024.72 1025.09 1025.45 1025.81 1026.14 1026.44 1026.71 1026.93 1027.11 1027.25 1027.35 1027.42 1027.47 1027.50 1027.53 1027.56 1027.59 1027.63 1027.68 1027.73 1027.79 1027.84 1027.89 1027.94 1027.99 1028.03 1028.07 1028.09 1028.11 1028.10 1028.07 1028.00 1027.88 1027.70 1027.48 1027.20 1026.87 1026.52 1026.14 1025.75 1025.37
1024.01 1024.38 1024.76 1025.14 1025.51 1025.87 1026.21 1026.51 1026.78 1027.00 1027.18 1027.32 1027.43 1027.50 1027.56 1027.61 1027.64 1027.68 1027.72 1027.76 1027.81 1027.86 1027.91 1027.96 1028.01 1028.07 1028.12 1028.17 1028.21 1028.24 1028.26 1028.25 1028.21 1028.12 1027.99 1027.80 1027.56 1027.27 1026.94 1026.57 1026.18 1025.79 1025.41
1023.98 1024.35 1024.73 1025.11 1025.48 1025.84 1026.16 1026.46 1026.72 1026.95 1027.14 1027.28 1027.40 1027.49 1027.56 1027.62 1027.67 1027.71 1027.75 1027.79 1027.84 1027.89 1027.94 1028.00 1028.06 1028.13 1028.20 1028.27 1028.34 1028.39 1028.42 1028.41 1028.37 1028.28 1028.14 1027.93 1027.67 1027.36 1027.01 1026.63 1026.23 1025.83 1025.44
1023.93 1024.30 1024.66 1025.02 1025.37 1025.71 1026.02 1026.30 1026.55 1026.78 1026.97 1027.13 1027.26 1027.36 1027.44 1027.51 1027.56 1027.61 1027.65 1027.69 1027.73 1027.78 1027.85 1027.92 1028.00 1028.10 1028.20 1028.31 1028.41 1028.49 1028.54 1028.56 1028.52 1028.43 1028.28 1028.07 1027.79 1027.46 1027.09 1026.69 1026.28 1025.86 1025.46
1023.88 1024.22 1024.56 1024.89 1025.21 1025.51 1025.79 1026.05 1026.29 1026.50 1026.69 1026.86 1026.99 1027.11 1027.20 1027.27 1027.32 1027.37 1027.40 1027.44 1027.48 1027.54 1027.61 1027.70 1027.81 1027.94 1028.08 1028.23 1028.37 1028.49 1028.58 1028.62 1028.61 1028.53 1028.38 1028.16 1027.88 1027.54 1027.16 1026.75 1026.32 1025.90 1025.49
1023.84 1024.15 1024.44 1024.73 1025.00 1025.26 1025.50 1025.73 1025.95 1026.15 1026.33 1026.50 1026.64 1026.75 1026.85 1026.92 1026.97 1027.01 1027.04 1027.07 1027.11 1027.16 1027.24 1027.35 1027.48 1027.64 1027.82 1028.00 1028.19 1028.35 1028.48 1028.55 1028.57 1028.51 1028.37 1028.16 1027.89 1027.55 1027.18 1026.77 1026.35 1025.92 1025.51
1023.79 1024.06 1024.30 1024.54 1024.76 1024.97 1025.18 1025.38 1025.57 1025.75 1025.92 1026.07 1026.20 1026.32 1026.41 1026.48 1026.53 1026.56 1026.58 1026.61 1026.64 1026.69 1026.77 1026.89 1027.03 1027.21 1027.42 1027.63 1027.85 1028.05 1028.21 1028.32 1028.36 1028.33 1028.22 1028.03 1027.78 1027.47 1027.11 1026.73 1026.32 1025.92 1025.52
Thickness
5597 5597 5598 5598 5598 5598 5598 5598 5598 5599 5601 5602 5603 5604 5605 5607 5609 5610 5611 5613 5614 5613 5614 5614 5612 5612 5611 5609 5607 5604 5601 5598 5589 5578 5575 5572 5569 5567 5564 5562 5560 5558 5556
5586 5586 5586 5586 5587 5587 5587 5587 5588 5588 5589 5590 5591 5593 5594 5595 5596 5598 5599 5600 5600 5600 5600 5601 5600 5600 5598 5596 5594 5592 5588 5585 5581 5572 5565 5562 5559 5557 5554 5552 5550 5548 5546
5575 5575 5575 5575 5575 5575 5575 5575 5576 5577 5578 5579 5580 5581 5582 5583 5584 5585 5586 5586 5586 5586 5587 5587 5586 5587 5584 5582 5580 5578 5575 5572 5568 5563 5555 5551 5549 5546 5544 5542 5540 5538 5536
5565 5565 5564 5563 5563 5563 5563 5564 5565 5566 5567 5568 5569 5570 5570 5571 5572 5573 5573 5574 5574 5574 5574 5574 5574 5574 5572 5570 5568 5565 5562 5558 5554 5551 5545 5541 5537 5534 5532 5531 5529 5527 5525
5554 5554 5553 5553 5552 5553 5553 5553 5554 5555 5556 5557 5558 5558 5559 5560 5561 5561 5562 5562 5562 5561 5561 5561 5561 5560 5560 5559 5557 5553 5550 5546 5542 5538 5533 5530 5527 5525 5522 5519 5518 5516 5515
5545 5544 5544 5544 5543 5542 5542 5543 5543 5544 5545 5547 5547 5547 5548 5548 5549 5550 5550 5549 5549 5548 5548 5547 5547 5547 5547 5546 5544 5541 5539 5536 5531 5527 5523 5520 5517 5514 5511 5509 5507 5508 5508
5535 5535 5534 5534 5534 5533 5533 5532 5533 5533 5534 5534 5535 5536 5536 5536 5538 5539 5539 5538 5537 5535 5535 5535 5535 5534 5533 5532 5530 5529 5526 5524 5521 5518 5514 5511 5508 5506 5504 5502 5499 5498 5498
5527 5526 5526 5526 5525 5524 5524 5523 5522 5523 5523 5524 5524 5525 5526 5526 5528 5529 5528 5527 5526 5524 5523 5523 5522 5521 5521 5520 5519 5516 5514 5511 5509 5507 5506 5503 5501 5498 5496 5494 5492 5490 5490
5519 5519 5518 5518 5517 5517 5516 5515 5515 5515 5514 5514 5515 5516 5517 5517 5519 5520 5520 5518 5515 5513 5513 5512 5512 5511 5510 5509 5508 5506 5504 5501 5501 5499 5498 5496 5495 5493 5490 5488 5486 5487 5487
5513 5512 5512 5512 5511 5510 5509 5508 5508 5507 5507 5507 5507 5507 5508 5508 5509 5511 5511 5509 5506 5504 5504 5503 5503 5502 5501 5500 5499 5497 5495 5493 5492 5492 5491 5490 5489 5488 5486 5483 5481 5481 5481
5507 5507 5506 5506 5505 5504 5503 5502 5501 5501 5500 5499 5499 5499 5499 5500 5501 5502 5502 5501 5499 5497 5497 5496 5495 5495 5494 5493 5492 5490 5488 5487 5485 5485 5485 5484 5483 5482 5480 5478 5476 5475 5476
5503 5502 5501 5501 5501 5500 5498 5496 5495 5494 5494 5493 5492 5492 5491 5492 5493 5494 5494 5494 5493 5492 5490 5489 5489 5489 5489 5488 5487 5485 5484 5482 5481 5481 5480 5478 5478 5477 5476 5475 5474 5473 5473
5499 5497 5496 5496 5495 5495 5494 5492 5490 5489 5488 5487 5486 5485 5484 5485 5486 5487 5487 5487 5487 5486 5485 5485 5485 5485 5484 5483 5482 5480 5479 5478 5477 5476 5474 5473 5471 5470 5471 5472 5472 5472 5472
5495 5493 5492 5492 5490 5489 5489 5488 5486 5485 5484 5484 5483 5481 5480 5480 5480 5481 5481 5481 5481 5481 5481 5481 5481 5480 5479 5478 5476 5475 5474 5472 5471 5470 5468 5467 5467 5468 5468 5467 5468 5468 5470
5492 5490 5489 5488 5487 5485 5484 5483 5483 5482 5482 5482 5480 5478 5477 5477 5476 5477 5477 5478 5478 5478 5478 5478 5477 5476 5475 5473 5472 5470 5469 5468 5467 5466 5465 5465 5465 5465 5465 5464 5464 5465 5467
5491 5488 5487 5485 5484 5483 5482 5480 5480 5481 5481 5480 5479 5477 5476 5476 5475 5476 5476 5477 5477 5477 5476 5475 5473 5472 5470 5469 5468 5468 5466 5465 5463 5463 5462 5462 5462 5462 5462 5462 5462 5463 5464
5491 5488 5486 5485 5484 5482 5481 5481 5479 5478 5479 5478 5477 5477 5476 5476 5476 5476 5476 5476 5476 5476 5474 5473 5471 5469 5468 5466 5465 5465 5463 5461 5460 5460 5460 5459 5460 5460 5460 5461 5461 5462 5463
5491 5489 5487 5485 5484 5482 5481 5480 5479 5479 5478 5477 5476 5476 5476 5476 5476 5476 5476 5476 5476 5474 5473 5471 5470 5468 5467 5466 5464 5463 5462 5460 5459 5459 5458 5457 5457 5458 5459 5459 5460 5460 5462
5492 5490 5488 5486 5484 5483 5481 5480 5480 5479 5478 5477 5477 5478 5478 5478 5478 5478 5477 5477 5476 5475 5473 5472 5470 5468 5467 5466 5464 5463 5461 5460 5458 5457 5457 5456 5456 5457 5458 5458 5459 5459 5460
5493 5492 5490 5488 5486 5485 5484 5483 5482 5481 5481 5480 5480 5480 5480 5480 5480 5480 5479 5478 5477 5476 5474 5473 5472 5470 5468 5467 5465 5463 5462 5460 5459 5458 5457 5456 5456 5456 5457 5458 5459 5460 5461
5496 5494 5493 5491 5490 5489 5488 5487 5486 5485 5485 5485 5485 5485 5484 5483 5483 5482 5481 5480 5479 5478 5477 5475 5474 5472 5470 5468 5466 5464 5463 5461 5460 5458 5457 5457 5457 5457 5458 5458 5459 5460 5462
5499 5497 5496 5495 5494 5493 5492 5491 5491 5490 5490 5490 5490 5489 5489 5487 5487 5486 5485 5484 5483 5481 5479 5478 5476 5474 5472 5470 5468 5466 5465 5463 5461 5460 5459 5458 5458 5458 5459 5459 5460 5461 5462
5503 5502 5500 5499 5498 5498 5497 5497 5496 5496 5495 5495 5495 5494 5493 5492 5491 5490 5490 5488 5487 5485 5483 5481 5479 5477 5475 5473 5471 5468 5467 5465 5463 5461 5460 5459 5459 5459 5459 5460 5461 5462 5463
5509 5507 5506 5504 5503 5503 5502 5502 5501 5501 5501 5500 5500 5499 5499 5497 5496 5495 5494 5493 5491 5489 5487 5485 5483 5481 5479 5476 5474 5472 5470 5468 5465 5463 5461 5460 5460 5460 5460 5460 5461 5462 5462
5514 5513 5512 5510 5509 5509 5508 5507 5507 5507 5506 5506 5506 5505 5504 5503 5502 5501 5499 5498 5496 5494 5492 5489 5487 5485 5483 5480 5478 5476 5473 5471 5468 5466 5464 5462 5461 5461 5461 5461 5461 5462 5462
5521 5520 5518 5517 5516 5515 5514 5514 5513 5513 5512 5512 5511 5511 5510 5508 5507 5506 5505 5503 5501 5499 5497 5495 5492 5490 5487 5485 5482 5480 5477 5474 5472 5469 5466 5464 5462 5462 5462 5462 5462 5462 5461